DMSP 5D-2 F13 DEB, 40470

Orbit data source: Space-Track

DMSP 5D-2 F13 DEB, 40470 is space debris in SSO originally from a launch on Fri, 24 Mar 1995 UTC launched from the Air Force Western Test Range (AFWTR). Debris objects in space refer to the collection of defunct objects orbiting the Earth. Examples of debris include non-operational satellites, rocket bodies, and fragments generated from explosions, collisions, or faulty payload assembly.

Loading next visibility...
Identifier
40470, 1995-015BN
Orbit
SSO
Country
Flag of USUS
Related business
Manufacturer
Unknown
Mission
Spacecraft
Bus & Motor
Unknown
Mass
Unknown
Launch date (UTC)
1995-03-24 (31 years ago)
Launch vehicle
Unknown
Launch site
Air Force Western Test Range (AFWTR)
Object type
Payload
Rocket body
Debris
Shape & HBR
Unknown shape, 0.1 m
Radar Cross Section
Small (<0.1 m²)

Expand to show TLE details & history
Last TLE update: 4 days ago

TLE from 4 days ago
0 DMSP 5D-2 F13 DEB
1 40470U 95015BN  25335.42538085  .00005013  00000-0  22746-2 0  9990
2 40470  98.9882 326.8713 0044814 295.1272  64.5259 14.21783888551798
Epoch: 2025-12-01T10:12Z
TLE epoch observation values (Epoch: 2025-12-01T10:12:32.905Z)
Latitude
0.00001°
Longitude
103.20913°
Altitude
808.477 km
Speed
7.456 km/s
True Right ascension
21h 47m 29s
True Declination
0° 00' 00"
Sunlit
Object was in daylight at epoch
Visualization orbit readout
Latitude
Unknown
Longitude
Unknown
Altitude
Unknown
Speed
Unknown
Apparent Right ascension
Unknown
Apparent Declination
Unknown
Sunlit
N/A
Visualization observer readout
Local Sidereal Time
07:30:09
Azimuth
Unknown
Elevation
Unknown
Doppler factor
Unknown
Orbital elements
Apogee altitude
848.738 km
Perigee altitude
784.254 km
Semi-major axis
7,194.633 km
Eccentricity
0.00448
Inclination
98.9882°
RAAN
326.8713°
Arg. of periapsis
295.1272°
True anomaly
64.99062°
Mean anomaly
64.5259°
Eccentric anomaly
64.75815°
Mean motion
3.55656 °/min
Orbital period
101.22 mins
BSTAR
0.0022746
Loading maneuver chart data...
Computing Atmospheric mass density...

Documentation

Showing up to 5 results
|